Location: G�ndlingen
(48.0142°N, 7.6396°E)
Time: 18:00:53
(UTC+00:00)

Cosmos 2297 - Pass Details

Date: 05 July 2020
Orbit: 835 x 859 km, 71.0° (Epoch: 13 August)

Event Time Altitude Azimuth Distance (km) Brightness Sun altitude
Rises 22:46:22 0° 332° (NNW) 3,445 8.3 -18.5°
Reaches altitude 10° 22:48:51 10° 333° (NNW) 2,503 7.3 -18.6°
Maximum altitude 22:54:37 84° 63° (ENE) 867 3.7 -18.8°
Enters shadow 22:57:28 31° 149° (SSE) 1,448 4.4 -18.8°
